Location: Strawberry
(45.6646°N, 111.9596°W)
Time: 21:47:00
(UTC+00:00)

Courier 1B Rocket - Pass Details

Date: 07 October 2022
Orbit: 920 x 1202 km, 28.3° (Epoch: 03 December)

Event Time Altitude Azimuth Distance (km) Brightness Sun altitude
Rises 01:15:16 0° 225° (SW) 3,874 9.0 -3.8°
Reaches altitude 10° 01:19:22 10° 204° (SSW) 2,856 7.8 -4.5°
Maximum altitude 01:23:06 15° 171° (S) 2,433 7.0 -5.2°
Drops below altitude 10° 01:26:43 10° 138° (SE) 2,747 7.0 -5.8°
Enters shadow 01:29:46 - 120° (ESE) 3,436 7.3 -6.3°
Sets 01:30:32 0° 116° (ESE) 3,644 - -6.5°
